H1 CPF 1 NER 2021 12 25 9 8591 glonass106 H2 0705201 9106 32275 2021 12 25 0 0 0 2021 12 28 23 45 0 900 1 1 0 0 0 H9 10 0 59573 0.00000 0 390960.860 -24863858.437 -5691403.624 10 0 59573 900.00000 0 209596.083 -25387933.423 -2493305.389 10 0 59573 1800.00000 0 -16801.040 -25500736.838 753215.345 10 0 59573 2700.00000 0 -230492.980 -25198487.392 3985109.689 10 0 59573 3600.00000 0 -374347.810 -24491240.318 7139626.373 10 0 59573 4500.00000 0 -394495.805 -23402476.876 10155530.527 10 0 59573 5400.00000 0 -242846.433 -21968150.372 12974291.632 10 0 59573 6300.00000 0 120641.062 -20235229.008 15541217.518 10 0 59573 7200.00000 0 726029.714 -18259796.902 17806512.421 10 0 59573 8100.00000 0 1591901.270 -16104792.882 19726238.930 10 0 59573 9000.00000 0 2724340.776 -13837481.495 21263165.664 10 0 59573 9900.00000 0 4116452.635 -11526761.636 22387484.799 10 0 59573 10800.00000 0 5748429.223 -9240424.530 23077386.244 10 0 59573 11700.00000 0 7588170.178 -7042474.652 23319477.910 10 0 59573 12600.00000 0 9592427.547 -4990624.381 23109044.390 10 0 59573 13500.00000 0 11708430.208 -3134065.727 22450139.298 10 0 59573 14400.00000 0 13875921.088 -1511610.898 21355509.453 10 0 59573 15300.00000 0 16029523.373 -150278.283 19846352.107 10 0 59573 16200.00000 0 18101338.191 935618.168 17951909.405 10 0 59573 17100.00000 0 20023666.303 1744838.951 15708907.239 10 0 59573 18000.00000 0 21731740.808 2289033.632 13160848.626 10 0 59573 18900.00000 0 23166357.040 2592008.529 10357174.572 10 0 59573 19800.00000 0 24276289.753 2688478.778 7352308.033 10 0 59573 20700.00000 0 25020396.083 2622357.819 4204599.178 10 0 59573 21600.00000 0 25369315.789 2444656.963 975192.248 10 0 59573 22500.00000 0 25306696.843 2211084.342 -2273163.949 10 0 59573 23400.00000 0 24829894.313 1979445.341 -5477338.337 10 0 59573 24300.00000 0 23950112.652 1806955.282 -8575048.473 10 0 59573 25200.00000 0 22691984.917 1747578.893 -11506075.511 10 0 59573 26100.00000 0 21092606.280 1849510.039 -14213438.951 10 0 59573 27000.00000 0 19200062.242 2152899.269 -16644507.811 10 0 59573 27900.00000 0 17071513.146 2687926.193 -18752026.307 10 0 59573 28800.00000 0 14770915.357 3473299.013 -20495033.804 10 0 59573 29700.00000 0 12366474.452 4515245.452 -21839661.226 10 0 59573 30600.00000 0 9927936.908 5807038.492 -22759788.639 10 0 59573 31500.00000 0 7523833.302 7329077.768 -23237551.442 10 0 59573 32400.00000 0 5218787.788 9049524.084 -23263685.740 10 0 59573 33300.00000 0 3071005.573 10925461.308 -22837706.480 10 0 59573 34200.00000 0 1130042.567 12904537.714 -21967915.131 10 0 59573 35100.00000 0 -565050.675 14927018.816 -20671236.918 10 0 59573 36000.00000 0 -1987134.313 16928166.421 -18972890.739 10 0 59573 36900.00000 0 -3121876.304 18840844.829 -16905898.119 10 0 59573 37800.00000 0 -3968105.034 20598245.521 -14510440.587 10 0 59573 38700.00000 0 -4537604.068 22136616.529 -11833077.729 10 0 59573 39600.00000 0 -4854358.977 23397882.261 -8925841.075 10 0 59573 40500.00000 0 -4953289.283 24332044.025 -5845221.378 10 0 59573 41400.00000 0 -4878520.182 24899260.570 -2651069.006 10 0 59573 42300.00000 0 -4681268.076 25071521.270 594570.836 10 0 59573 43200.00000 0 -4417430.273 24833841.716 3828665.170 10 0 59573 44100.00000 0 -4144981.561 24184931.560 6988418.774 10 0 59573 45000.00000 0 -3921288.445 23137306.609 10012493.941 10 0 59573 45900.00000 0 -3800455.185 21716840.638 12842200.560 10 0 59573 46800.00000 0 -3830814.208 19961775.762 15422633.330 10 0 59573 47700.00000 0 -4052667.219 17921232.949 17703734.051 10 0 59573 48600.00000 0 -4496372.584 15653284.948 19641258.717 10 0 59573 49500.00000 0 -5180859.893 13222671.950 21197631.156 10 0 59573 50400.00000 0 -6112634.538 10698255.043 22342667.203 10 0 59573 51300.00000 0 -7285314.656 8150313.019 23054156.068 10 0 59573 52200.00000 0 -8679720.544 5647794.337 23318288.245 10 0 59573 53100.00000 0 -10264513.629 3255637.783 23129922.114 10 0 59573 54000.00000 0 -11997359.283 1032272.191 22492684.370 10 0 59573 54900.00000 0 -13826565.990 -972601.838 21418902.322 10 0 59573 55800.00000 0 -15693133.504 -2719856.933 19929369.137 10 0 59573 56700.00000 0 -17533125.499 -4182334.879 18052946.062 10 0 59573 57600.00000 0 -19280268.536 -5345736.224 15826008.657 10 0 59573 58500.00000 0 -20868669.322 -6208967.201 13291747.028 10 0 59573 59400.00000 0 -22235537.040 -6783930.223 10499332.867 10 0 59573 60300.00000 0 -23323796.810 -7094767.442 7502968.791 10 0 59573 61200.00000 0 -24084484.493 -7176589.715 4360838.049 10 0 59573 62100.00000 0 -24478821.925 -7073745.167 1133974.777 10 0 59573 63000.00000 0 -24479884.724 -6837700.954 -2114923.227 10 0 59573 63900.00000 0 -24073791.828 -6524628.382 -5322715.718 10 0 59573 64800.00000 0 -23260365.960 -6192794.192 -8427051.015 10 0 59573 65700.00000 0 -22053236.494 -5899869.143 -11367582.310 10 0 59573 66600.00000 0 -20479379.762 -5700268.580 -14087144.902 10 0 59573 67500.00000 0 -18578115.592 -5642638.311 -16532870.986 10 0 59573 68400.00000 0 -16399601.773 -5767592.917 -18657219.961 10 0 59573 69300.00000 0 -14002889.286 -6105802.811 -20418903.948 10 0 59573 70200.00000 0 -11453619.491 -6676511.522 -21783690.592 10 0 59573 71100.00000 0 -8821459.250 -7486546.438 -22725067.713 10 0 59573 72000.00000 0 -6177380.892 -8529865.311 -23224757.152 10 0 59573 72900.00000 0 -3590900.068 -9787658.258 -23273068.209 10 0 59573 73800.00000 0 -1127386.087 -11229001.659 -22869084.109 10 0 59573 74700.00000 0 1154443.792 -12812037.067 -22020678.121 10 0 59573 75600.00000 0 3204742.575 -14485626.324 -20744359.159 10 0 59573 76500.00000 0 4984372.782 -16191414.006 -19064949.858 10 0 59573 77400.00000 0 6466291.086 -17866211.157 -17015103.284 10 0 59573 78300.00000 0 7636421.765 -19444600.716 -14634667.517 10 0 59573 79200.00000 0 8493983.786 -20861655.583 -11969910.248 10 0 59573 80100.00000 0 9051259.153 -22055655.329 -9072618.368 10 0 59573 81000.00000 0 9332813.684 -22970687.457 -5999090.016 10 0 59573 81900.00000 0 9374204.337 -23559023.866 -2809038.705 10 0 59573 82800.00000 0 9220228.806 -23783172.413 435568.844 10 0 59573 83700.00000 0 8922792.411 -23617517.194 3671718.328 10 0 59573 84600.00000 0 8538483.352 -23049478.379 6836573.135 10 0 59573 85500.00000 0 8125959.611 -22080142.710 9868695.046 10 0 59574 0.00000 0 7743258.612 -20724338.209 12709236.168 10 0 59574 900.00000 0 7445143.588 -19010148.981 15303080.349 10 0 59574 1800.00000 0 7280599.503 -16977892.270 17599908.140 10 0 59574 2700.00000 0 7290583.702 -14678597.881 19555170.078 10 0 59574 3600.00000 0 7506126.709 -12172054.927 21130946.005 10 0 59574 4500.00000 0 7946863.059 -9524506.309 22296675.879 10 0 59574 5400.00000 0 8620054.133 -6806086.446 23029748.359 10 0 59574 6300.00000 0 9520144.394 -4088108.076 23315936.358 10 0 59574 7200.00000 0 10628870.093 -1440310.059 23149671.596 10 0 59574 8100.00000 0 11915916.590 1071820.494 22534153.145 10 0 59574 9000.00000 0 13340097.610 3389541.662 21481287.885 10 0 59574 9900.00000 0 14851007.988 5463063.067 20011463.772 10 0 59574 10800.00000 0 16391081.678 7253374.501 18153159.848 10 0 59574 11700.00000 0 17897969.807 8733621.641 15942399.854 10 0 59574 12600.00000 0 19307139.814 9889972.302 13422059.314 10 0 59574 13500.00000 0 20554587.269 10721937.835 10641038.742 10 0 59574 14400.00000 0 21579546.780 11242136.930 7653318.353 10 0 59574 15300.00000 0 22327088.014 11475512.334 4516912.219 10 0 59574 16200.00000 0 22750487.334 11458034.055 1292741.945 10 0 59574 17100.00000 0 22813274.649 11234944.320 -1956548.230 10 0 59574 18000.00000 0 22490868.487 10858618.948 -5167811.494 10 0 59574 18900.00000 0 21771729.557 10386136.186 -8278629.520 10 0 59574 19800.00000 0 20657983.279 9876656.487 -11228530.010 10 0 59574 20700.00000 0 19165484.206 9388724.784 -13960166.371 10 0 59574 21600.00000 0 17323318.807 8977610.054 -16420436.063 10 0 59574 22500.00000 0 15172766.754 8692795.347 -18561515.530 10 0 59574 23400.00000 0 12765763.727 8575724.934 -20341791.291 10 0 59574 24300.00000 0 10162929.571 8657904.224 -21726669.138 10 0 59574 25200.00000 0 7431243.772 8959433.081 -22689245.885 10 0 59574 26100.00000 0 4641464.919 9488034.734 -23210830.850 10 0 59574 27000.00000 0 1865401.260 10238621.535 -23281307.317 10 0 59574 27900.00000 0 -826854.512 11193416.216 -22899327.281 10 0 59574 28800.00000 0 -3369611.679 12322623.843 -22072335.945 10 0 59574 29700.00000 0 -5704078.076 13585626.642 -20816425.638 10 0 59574 30600.00000 0 -7780563.807 14932651.821 -19156021.998 10 0 59574 31500.00000 0 -9560301.162 16306842.638 -17123408.448 10 0 59574 32400.00000 0 -11016806.032 17646645.962 -14758098.027 10 0 59574 33300.00000 0 -12136725.140 18888416.151 -12106064.552 10 0 59574 34200.00000 0 -12920134.912 19969125.803 -9218847.999 10 0 59574 35100.00000 0 -13380280.813 20829069.298 -6152551.373 10 0 59574 36000.00000 0 -13542769.470 21414445.209 -2966748.644 10 0 59574 36900.00000 0 -13444248.821 21679708.595 276674.755 10 0 59574 37800.00000 0 -13130633.178 21589593.848 3514726.044 10 0 59574 38700.00000 0 -12654949.153 21120722.621 6684530.089 10 0 59574 39600.00000 0 -12074894.310 20262728.806 9724550.990 10 0 59574 40500.00000 0 -11450212.363 19018852.988 12575786.321 10 0 59574 41400.00000 0 -10839996.312 17405981.002 15182910.701 10 0 59574 42300.00000 0 -10300033.633 15454124.680 17495346.471 10 0 59574 43200.00000 0 -9880305.652 13205366.102 19468241.027 10 0 59574 44100.00000 0 -9622746.458 10712308.961 21063332.328 10 0 59574 45000.00000 0 -9559355.624 8036101.136 22249686.304 10 0 59574 45900.00000 0 -9710743.976 5244110.099 23004292.620 10 0 59574 46800.00000 0 -10085173.498 2407346.987 23312507.827 10 0 59574 47700.00000 0 -10678131.740 -402254.512 23168337.821 10 0 59574 48600.00000 0 -11472458.872 -3114592.533 22574554.468 10 0 59574 49500.00000 0 -12439022.492 -5664071.460 21542644.150 10 0 59574 50400.00000 0 -13537912.514 -7992086.350 20092589.047 10 0 59574 51300.00000 0 -14720106.773 -10049215.209 18252484.918 10 0 59574 52200.00000 0 -15929538.226 -11797028.911 16058002.087 10 0 59574 53100.00000 0 -17105477.679 -13209444.126 13551699.423 10 0 59574 54000.00000 0 -18185132.503 -14273563.600 10782203.765 10 0 59574 54900.00000 0 -19106352.398 -14989969.294 7803270.074 10 0 59574 55800.00000 0 -19810328.365 -15372456.640 4672740.120 10 0 59574 56700.00000 0 -20244170.968 -15447221.663 1451419.660 10 0 59574 57600.00000 0 -20363258.680 -15251535.731 -1798104.062 10 0 59574 58500.00000 0 -20133256.529 -14831964.310 -5012681.162 10 0 59574 59400.00000 0 -19531718.986 -14242205.560 -8129830.148 10 0 59574 60300.00000 0 -18549208.444 -13540640.667 -11088956.668 10 0 59574 61200.00000 0 -17189881.157 -12787700.105 -13832535.545 10 0 59574 62100.00000 0 -15471514.892 -12043157.754 -16307232.613 10 0 59574 63000.00000 0 -13424976.188 -11363467.808 -18464944.177 10 0 59574 63900.00000 0 -11093148.730 -10799257.435 -20263733.566 10 0 59574 64800.00000 0 -8529366.972 -10393081.377 -21668646.647 10 0 59574 65700.00000 0 -5795419.809 -10177533.479 -22652390.570 10 0 59574 66600.00000 0 -2959207.098 -10173794.844 -23195862.849 10 0 59574 67500.00000 0 -92146.101 -10390679.877 -23288520.846 10 0 59574 68400.00000 0 2733564.743 -10824220.348 -22928584.831 10 0 59574 69300.00000 0 5447711.430 -11457805.021 -22123070.892 10 0 59574 70200.00000 0 7984745.037 -12262868.983 -20887653.250 10 0 59574 71100.00000 0 10286266.690 -13200103.739 -19246358.621 10 0 59574 72000.00000 0 12303214.127 -14221137.235 -17231098.487 10 0 59574 72900.00000 0 13997659.764 -15270613.150 -14881048.217 10 0 59574 73800.00000 0 15344146.257 -16288582.000 -12241884.842 10 0 59574 74700.00000 0 16330504.800 -17213103.257 -9364898.246 10 0 59574 75600.00000 0 16958123.139 -17982948.751 -6305992.931 10 0 59574 76500.00000 0 17241653.295 -18540293.184 -3124599.826 10 0 59574 77400.00000 0 17208172.490 -18833278.014 117480.450 10 0 59574 78300.00000 0 16895833.811 -18818340.222 3357280.103 10 0 59574 79200.00000 0 16352064.580 -18462207.387 6531888.746 10 0 59574 80100.00000 0 15631389.380 -17743474.536 9579675.792 10 0 59574 81000.00000 0 14792970.376 -16653695.941 12441486.660 10 0 59574 81900.00000 0 13897969.287 -15197945.425 15061789.457 10 0 59574 82800.00000 0 13006842.634 -13394821.152 17389749.800 10 0 59574 83700.00000 0 12176684.381 -11275894.140 19380213.247 10 0 59574 84600.00000 0 11458727.816 -8884622.872 20994576.717 10 0 59574 85500.00000 0 10896111.561 -6274778.656 22201532.543 10 0 59575 0.00000 0 10522003.297 -3508446.764 22977671.365 10 0 59575 900.00000 0 10358159.525 -653684.031 23307933.169 10 0 59575 1800.00000 0 10413981.967 2218066.924 23185897.270 10 0 59575 2700.00000 0 10686109.387 5034705.597 22613907.353 10 0 59575 3600.00000 0 11158562.497 7726227.826 21603028.084 10 0 59575 4500.00000 0 11803435.835 10227394.523 20172834.425 10 0 59575 5400.00000 0 12582107.976 12480204.900 18351037.200 10 0 59575 6300.00000 0 13446919.763 14436072.324 16172951.512 10 0 59575 7200.00000 0 14343250.497 16057612.948 13680817.586 10 0 59575 8100.00000 0 15211905.259 17319973.248 10922986.440 10 0 59575 9000.00000 0 15991713.136 18211641.572 7952985.483 10 0 59575 9900.00000 0 16622226.968 18734710.140 4828481.738 10 0 59575 10800.00000 0 17046410.574 18904576.987 1610162.567 10 0 59575 11700.00000 0 17213199.608 18749100.796 -1639444.391 10 0 59575 12600.00000 0 17079827.241 18307244.625 -4857188.768 10 0 59575 13500.00000 0 16613815.547 17627266.223 -7980528.425 10 0 59575 14400.00000 0 15794547.477 16764531.810 -10948749.306 10 0 59575 15300.00000 0 14614351.972 15779046.172 -13704149.787 10 0 59575 16200.00000 0 13079055.315 14732803.915 -16193165.977 10 0 59575 17100.00000 0 11207974.357 13687074.187 -18367415.690 10 0 59575 18000.00000 0 9033350.852 12699733.848 -20184640.498 10 0 59575 18900.00000 0 6599249.641 11822761.834 -21609527.557 10 0 59575 19800.00000 0 3959965.833 11100000.429 -22614395.398 10 0 59575 20700.00000 0 1178006.836 10565277.696 -23179730.586 10 0 59575 21600.00000 0 -1678267.388 10240969.922 -23294565.194 10 0 59575 22500.00000 0 -4537248.263 10137064.310 -22956688.117 10 0 59575 23400.00000 0 -7326818.919 10250760.999 -22172686.352 10 0 59575 24300.00000 0 -9977117.640 10566630.826 -20957815.625 10 0 59575 25200.00000 0 -12423210.171 11057321.893 -19335702.911 10 0 59575 26100.00000 0 -14607560.321 11684784.899 -17337886.509 10 0 59575 27000.00000 0 -16482196.770 12401965.435 -15003202.474 10 0 59575 27900.00000 0 -18010486.586 13154891.704 -12377029.091 10 0 59575 28800.00000 0 -19168442.190 13885069.444 -9510403.934 10 0 59575 29700.00000 0 -19945508.123 14532082.766 -6459030.615 10 0 59575 30600.00000 0 -20344795.683 15036290.845 -3282194.519 10 0 59575 31500.00000 0 -20382756.609 15341506.235 -41608.881 10 0 59575 32400.00000 0 -20088310.649 15397541.321 3199786.091 10 0 59575 33300.00000 0 -19501464.762 15162514.908 6379047.377 10 0 59575 34200.00000 0 -18671483.078 14604821.139 9434452.317 10 0 59575 35100.00000 0 -17654685.551 13704677.175 12306696.781 10 0 59575 36000.00000 0 -16511968.709 12455183.895 14940044.897 10 0 59575 36900.00000 0 -15306153.375 10862854.412 17283407.992 10 0 59575 37800.00000 0 -14099271.189 8947587.553 19291332.058 10 0 59575 38700.00000 0 -12949903.995 6742086.628 20924875.042 10 0 59575 39600.00000 0 -11910687.686 4290746.998 22152357.477 10 0 59575 40500.00000 0 -11026084.819 1648057.903 22949972.581 10 0 59575 41400.00000 0 -10330518.942 -1123415.992 23302244.662 10 0 59575 42300.00000 0 -9846948.288 -3955390.363 23202327.435 10 0 59575 43200.00000 0 -9585938.097 -6776457.703 22652136.830 10 0 59575 44100.00000 0 -9545270.055 -9514817.840 21662315.822 10 0 59575 45000.00000 0 -9710104.993 -12101030.214 20252031.758 10 0 59575 45900.00000 0 -10053691.947 -14470674.676 18448609.715 10 0 59575 46800.00000 0 -10538593.900 -16566811.122 16287008.332 10 0 59575 47700.00000 0 -11118378.906 -18342136.320 13809147.554 10 0 59575 48600.00000 0 -11739705.659 -19760748.621 11063100.576 10 0 59575 49500.00000 0 -12344715.834 -20799447.348 8102164.930 10 0 59575 50400.00000 0 -12873632.391 -21448512.775 4983830.307 10 0 59575 51300.00000 0 -13267453.992 -21711934.310 1768662.875 10 0 59575 52200.00000 0 -13470631.347 -21607077.524 -1480872.305 10 0 59575 53100.00000 0 -13433611.770 -21163804.297 -4701627.485 10 0 59575 54000.00000 0 -13115143.517 -20423083.448 -7831003.071 10 0 59575 54900.00000 0 -12484241.541 -19435150.798 -10808168.554 10 0 59575 55800.00000 0 -11521730.481 -18257296.663 -13575249.113 10 0 59575 56700.00000 0 -10221298.579 -16951374.559 -16078454.295 10 0 59575 57600.00000 0 -8590016.878 -15581136.576 -18269126.420 10 0 59575 58500.00000 0 -6648300.688 -14209508.075 -20104688.013 10 0 59575 59400.00000 0 -4429313.787 -12895916.718 -21549469.856 10 0 59575 60300.00000 0 -1977839.235 -11693788.284 -22575403.720 10 0 59575 61200.00000 0 651336.919 -10648314.485 -23162566.561 10 0 59575 62100.00000 0 3395462.417 -9794586.296 -23299565.957 10 0 59575 63000.00000 0 6186192.062 -9156170.755 -22983759.687 10 0 59575 63900.00000 0 8952199.219 -8744190.471 -22221305.401 10 0 59575 64800.00000 0 11621917.665 -8556943.866 -21027039.618 10 0 59575 65700.00000 0 14126300.308 -8580081.431 -19424188.405 10 0 59575 66600.00000 0 16401480.509 -8787329.992 -17443915.280 10 0 59575 67500.00000 0 18391225.816 -9141733.883 -15124714.969 10 0 59575 68400.00000 0 20049082.447 -9597360.182 -12511664.535 10 0 59575 69300.00000 0 21340121.581 -10101395.670 -9655546.350 10 0 59575 70200.00000 0 22242215.220 -10596546.483 -6611859.852 10 0 59575 71100.00000 0 22746788.970 -11023638.716 -3439741.284 10 0 59575 72000.00000 0 22859020.972 -11324309.585 -200812.695 10 0 59575 72900.00000 0 22597479.541 -11443674.938 3042017.168 10 0 59575 73800.00000 0 21993215.660 -11332859.870 6225776.447 10 0 59575 74700.00000 0 21088349.316 -10951284.991 9288653.981 10 0 59575 75600.00000 0 19934210.000 -10268611.291 12171199.306 10 0 59575 76500.00000 0 18589110.247 -9266260.958 14817475.370 10 0 59575 77400.00000 0 17115846.320 -7938449.535 17176141.518 10 0 59575 78300.00000 0 15579031.376 -6292685.285 19201445.989 10 0 59575 79200.00000 0 14042373.087 -4349714.020 20854109.079 10 0 59575 80100.00000 0 12566009.723 -2142910.857 22102080.372 10 0 59575 81000.00000 0 11204015.922 282856.686 22921156.024 10 0 59575 81900.00000 0 10002181.978 2872847.979 23295444.796 10 0 59575 82800.00000 0 8996158.907 5564484.608 23217674.309 10 0 59575 83700.00000 0 8210046.150 8289718.357 22689331.966 10 0 59575 84600.00000 0 7655480.300 10977634.698 21720637.927 10 0 59575 85500.00000 0 7331262.419 13557184.671 20330350.491 10 0 59576 0.00000 0 7223539.074 15959932.599 18545407.449 10 0 59576 900.00000 0 7306529.193 18122707.513 16400408.676 10 0 59576 1800.00000 0 7543766.137 19990045.423 13936951.785 10 0 59576 2700.00000 0 7889802.505 21516325.510 11202829.740 10 0 59576 3600.00000 0 8292306.032 22667508.103 8251107.611 10 0 59576 4500.00000 0 8694458.008 23422403.238 5139095.012 10 0 59576 5400.00000 0 9037552.795 23773416.543 1927234.059 10 0 59576 6300.00000 0 9263688.207 23726741.177 -1322075.653 10 0 59576 7200.00000 0 9318432.437 23301987.779 -4545691.875 10 0 59576 8100.00000 0 9153353.949 22531268.123 -7680960.311 10 0 59576 9000.00000 0 8728306.399 21457771.203 -10666936.557 10 0 59576 9900.00000 0 8013370.901 20133891.991 -13445574.896 10 0 59576 10800.00000 0 6990372.439 18618991.993 -15962860.332 10 0 59576 11700.00000 0 5653905.182 16976886.203 -18169861.409 10 0 59576 12600.00000 0 4011822.350 15273162.522 -20023683.051 10 0 59576 13500.00000 0 2085168.765 13572446.561 -21488300.866 10 0 59576 14400.00000 0 -92442.223 11935726.756 -22535260.842 10 0 59576 15300.00000 0 -2475982.387 10417852.030 -23144231.064 10 0 59576 16200.00000 0 -5010645.642 9065306.606 -23303395.110 10 0 59576 17100.00000 0 -7633901.014 7914354.737 -23009679.839 10 0 59576 18000.00000 0 -10277876.735 6989632.507 -22268813.401 10 0 59576 18900.00000 0 -12871976.858 6303244.856 -21095212.540 10 0 59576 19800.00000 0 -15345622.134 5854404.828 -19511701.433 10 0 59576 20700.00000 0 -17631001.434 5629629.266 -17549067.412 10 0 59576 21600.00000 0 -19665719.667 5603481.782 -15245462.083 10 0 59576 22500.00000 0 -21395232.181 5739830.866 -12645659.203 10 0 59576 23400.00000 0 -22774964.456 5993569.344 -9800183.637 10 0 59576 24300.00000 0 -23772028.922 6312721.879 -6764328.179 10 0 59576 25200.00000 0 -24366467.579 6640850.866 -3597077.379 10 0 59576 26100.00000 0 -24551968.806 6919658.404 -359959.493 10 0 59576 27000.00000 0 -24336028.970 7091673.726 2884150.825 10 0 59576 27900.00000 0 -23739552.653 7102911.842 6072255.527 10 0 59576 28800.00000 0 -22795908.992 6905390.437 9142457.600 10 0 59576 29700.00000 0 -21549484.475 6459398.096 12035162.863 10 0 59576 30600.00000 0 -20053793.553 5735417.506 14694235.623 10 0 59576 31500.00000 0 -18369226.925 4715621.989 17068085.646 10 0 59576 32400.00000 0 -16560532.271 3394881.694 19110665.612 10 0 59576 33300.00000 0 -14694133.097 1781236.411 20782360.091 10 0 59576 34200.00000 0 -12835397.856 -104185.599 22050749.314 10 0 59576 35100.00000 0 -11045973.205 -2227800.362 22891233.606 10 0 59576 36000.00000 0 -9381292.200 -4544727.191 23287507.040 10 0 59576 36900.00000 0 -7888360.859 -7000426.705 23231871.620 10 0 59576 37800.00000 0 -6603914.581 -9532750.920 22725386.340 10 0 59576 38700.00000 0 -5553020.548 -12074321.363 21777848.317 10 0 59576 39600.00000 0 -4748183.669 -14555137.446 20407606.247 10 0 59576 40500.00000 0 -4188992.667 -16905307.709 18641209.391 10 0 59576 41400.00000 0 -3862320.485 -19057791.249 16512898.315 10 0 59576 42300.00000 0 -3743070.139 -20951035.785 14063946.508 10 0 59576 43200.00000 0 -3795434.294 -22531402.890 11341864.926 10 0 59576 44100.00000 0 -3974615.263 -23755279.400 8399484.139 10 0 59576 45000.00000 0 -4228932.708 -24590786.667 5293931.448 10 0 59576 45900.00000 0 -4502229.763 -25019016.050 2085522.497 10 0 59576 46800.00000 0 -4736475.500 -25034738.575 -1163411.160 10 0 59576 47700.00000 0 -4874453.155 -24646558.775 -4389735.454 10 0 59576 48600.00000 0 -4862419.639 -23876506.070 -7530744.186 10 0 59576 49500.00000 0 -4652622.942 -22759080.772 -10525381.937 10 0 59576 50400.00000 0 -4205569.939 -21339794.905 -13315435.016 10 0 59576 51300.00000 0 -3491947.643 -19673269.316 -15846666.782 10 0 59576 52200.00000 0 -2494115.589 -17820967.275 -18069874.813 10 0 59576 53100.00000 0 -1207105.285 -15848660.027 -19941849.047 10 0 59576 54000.00000 0 360916.558 -13823730.831 -21426212.249 10 0 59576 54900.00000 0 2188741.634 -11812430.601 -22494126.589 10 0 59576 55800.00000 0 4242767.621 -9877200.054 -23124852.845 10 0 59576 56700.00000 0 6478173.665 -8074170.196 -23306151.716 10 0 59576 57600.00000 0 8840575.598 -6450945.159 -23034519.824 10 0 59576 58500.00000 0 11268092.567 -5044759.517 -22315256.079 10 0 59576 59400.00000 0 13693739.656 -3881086.233 -21162357.319 10 0 59576 60300.00000 0 16048047.379 -2972752.477 -19598245.286 10 0 59576 61200.00000 0 18261799.303 -2319599.283 -17653330.175 10 0 59576 62100.00000 0 20268774.060 -1908698.135 -15365419.077 10 0 59576 63000.00000 0 22008377.688 -1715114.238 -12778980.578 10 0 59576 63900.00000 0 23428056.518 -1703183.287 -9944279.668 10 0 59576 64800.00000 0 24485390.025 -1828246.911 -6916399.674 10 0 59576 65700.00000 0 25149776.226 -2038772.613 -3754170.197 10 0 59576 66600.00000 0 25403639.264 -2278767.844 -519022.136 10 0 59576 67500.00000 0 25243108.846 -2490385.383 2726207.708 10 0 59576 68400.00000 0 24678143.416 -2616609.140 5918498.900 10 0 59576 69300.00000 0 23732092.266 -2603906.162 8995872.265 10 0 59576 70200.00000 0 22440715.482 -2404732.145 11898593.372 10 0 59576 71100.00000 0 20850703.244 -1979784.032 14570331.015 10 0 59576 72000.00000 0 19017756.979 -1299904.095 16959248.130 10 0 59576 72900.00000 0 17004313.035 -347554.726 19019004.153 10 0 59576 73800.00000 0 14877004.215 882198.802 20709649.818 10 0 59576 74700.00000 0 12703965.221 2381239.509 21998397.452 10 0 59576 75600.00000 0 10552094.202 4128503.522 22860252.583 10 0 59576 76500.00000 0 8484384.068 6090635.079 23278495.188 10 0 59576 77400.00000 0 6557434.146 8223165.438 23245001.832 10 0 59576 78300.00000 0 4819244.973 10472167.658 22760402.837 10 0 59576 79200.00000 0 3307387.136 12776319.544 21834071.586 10 0 59576 80100.00000 0 2047619.574 15069289.957 20483946.050 10 0 59576 81000.00000 0 1053014.013 17282350.224 18736185.639 10 0 59576 81900.00000 0 323621.245 19347102.837 16624669.422 10 0 59576 82800.00000 0 -153307.494 21198214.337 14190344.736 10 0 59576 83700.00000 0 -402553.994 22776038.852 11480438.081 10 0 59576 84600.00000 0 -459654.137 24029022.904 8547542.852 10 0 59576 85500.00000 0 -369160.793 24915790.772 5448601.170 99